Dickinson, ND

12:14 PM MST on February 26, 2017 (GMT -0700)
Dickinson Municipal

Weather History for KDIK - September, 2012

Change the Weather History Date:

Sunday, September 2, 2012

  Actual Average Record
Temperature  
Mean Temperature 66 °F 63 °F  
Max Temperature 85 °F 78 °F 100 °F (1971)
Min Temperature 47 °F 49 °F 30 °F (1974)
Degree Days  
Heating Degree Days 0 4  
Month to date heating degree days 0 8  
Since 1 July heating degree days 40 94  
Cooling Degree Days 1 3  
Month to date cooling degree days 1 6  
Year to date cooling degree days 555 392  
Growing Degree Days 18 (Base 50)    
Moisture  
Dew Point 43 °F    
Average Humidity 44    
Maximum Humidity 78    
Minimum Humidity 10    
Precipitation  
Precipitation 0.06 in 0.05 in 0.72 in (1989)
Month to date precipitation 0.06 0.10  
Year to date precipitation 8.48 12.39  
Sea Level Pressure  
Sea Level Pressure 29.83 in    
Wind  
Wind Speed 10 mph (WNW)    
Max Wind Speed 26 mph    
Max Gust Speed 36 mph    
Visibility 10 miles    
Events Rain , Thunderstorm    
T = Trace of Precipitation, MM = Missing Value Source: NWS Daily Summary

Daily Weather History Graph

Daily Weather History Graph

Search for Another Location

Airport or City:

Trip Planner

Search our weather history database for the weather conditions in past years. The results will help you decide how hot, cold, wet, or windy it might be!

Date:

Astronomy

Sep. 02, 2012 Rise Set
Actual Time 6:12 AM MDT 7:27 PM MDT
Civil Twilight 5:41 AM MDT 7:58 PM MDT
Nautical Twilight 5:03 AM MDT 8:36 PM MDT
Astronomical Twilight 4:23 AM MDT 9:16 PM MDT
Moon 8:01 PM MDT (9/2) 8:36 AM MDT (9/2)
Length of Visible Light 14h 17m
Length of Day
13h 14m
Waning Gibbous, 95% of the Moon is Illuminated
Sep 2
Waning Gibbous
Sep 8
Last Quarter
Sep 15
New
Sep 22
First Quarter
Sep 29
Full

Hourly Weather History & Observations

Time (MDT) Temp. Dew Point Humidity Pressure Visibility Wind Dir Wind Speed Gust Speed Precip Events Conditions
12:53 AM 69.8 °F 55.4 °F 60% 29.79 in 10.0 mi East 6.9 mph - 0.00 in Thunderstorm Mostly Cloudy
12:56 AM 69.1 °F 55.0 °F 61% 29.72 in 10.0 mi ENE 6.9 mph - 0.00 in Thunderstorm Mostly Cloudy
1:56 AM 69.1 °F 57.0 °F 65% 29.72 in 10.0 mi North 9.2 mph - 0.01 in   Scattered Clouds
2:56 AM 66.0 °F 57.0 °F 73% 29.73 in 10.0 mi NW 10.4 mph - 0.00 in Rain Light Rain
3:56 AM 64.9 °F 57.0 °F 75% 29.74 in 10.0 mi NW 9.2 mph - 0.00 in   Mostly Cloudy
4:56 AM 64.9 °F 54.0 °F 68% 29.78 in 10.0 mi West 6.9 mph - N/A   Overcast
5:56 AM 64.0 °F 55.9 °F 75% 29.76 in 10.0 mi NW 5.8 mph - 0.01 in   Scattered Clouds
6:56 AM 64.0 °F 55.0 °F 73% 29.82 in 10.0 mi West 15.0 mph - N/A   Mostly Cloudy
7:34 AM 62.6 °F 55.4 °F 77% 29.89 in 10.0 mi West 9.2 mph - 0.00 in Rain , Thunderstorm Light Rain
7:56 AM 66.0 °F 53.1 °F 63% 29.84 in 10.0 mi WNW 11.5 mph - 0.00 in   Mostly Cloudy
8:56 AM 66.9 °F 50.0 °F 54% 29.87 in 10.0 mi West 21.9 mph 28.8 mph 0.00 in   Mostly Cloudy
10:56 AM 75.0 °F 54.0 °F 48% 29.87 in 10.0 mi WNW 12.7 mph - N/A   Clear
11:56 AM 79.0 °F 50.0 °F 36% 29.86 in 10.0 mi WNW 13.8 mph - N/A   Clear
12:56 PM 82.9 °F 37.0 °F 19% 29.85 in 10.0 mi WNW 18.4 mph 24.2 mph N/A   Clear
1:56 PM 84.0 °F 34.0 °F 17% 29.84 in 10.0 mi WNW 10.4 mph 21.9 mph N/A   Clear
2:56 PM 84.0 °F 28.0 °F 13% 29.84 in 10.0 mi West 17.3 mph 29.9 mph N/A   Clear
3:56 PM 84.0 °F 27.0 °F 13% 29.84 in 10.0 mi West 17.3 mph 28.8 mph N/A   Clear
4:56 PM 84.0 °F 24.1 °F 11% 29.84 in 10.0 mi West 15.0 mph 25.3 mph N/A   Clear
5:56 PM 82.0 °F 21.9 °F 11% 29.85 in 10.0 mi WNW 13.8 mph 23.0 mph N/A   Clear
6:56 PM 75.0 °F 26.1 °F 16% 29.86 in 10.0 mi West 5.8 mph - N/A   Clear
7:56 PM 64.9 °F 27.0 °F 24% 29.88 in 10.0 mi West 5.8 mph - N/A   Clear
8:56 PM 62.1 °F 28.0 °F 28% 29.90 in 10.0 mi WNW 4.6 mph - N/A   Clear
10:56 PM 53.1 °F 33.1 °F 47% 29.88 in 10.0 mi South 3.5 mph - N/A   Clear
11:56 PM 57.9 °F 32.0 °F 37% 29.86 in 10.0 mi Calm Calm - N/A   Clear